| time (UTC) | temp C | wind direction | speed KPH | gust KPH | rain 1hr cm | rain 24hr cm | rain mn cm | humidity % | barometer mb |
| 20260507220058 | 13 | 157 | 1.6 | 4.8 | 0.00 | 1.45 | 1.45 | 52 | 1009.6 |
| 20260507215556 | 13 | 157 | 3.2 | 4.8 | 0.00 | 1.45 | 1.45 | 53 | 1009.6 |
| 20260507215056 | 13 | 157 | 3.2 | 4.8 | 0.00 | 1.45 | 1.45 | 53 | 1009.7 |
| 20260507214600 | 13 | 157 | 3.2 | 8.0 | 0.00 | 1.45 | 1.45 | 52 | 1009.6 |
| 20260507214057 | 13 | 157 | 1.6 | 8.0 | 0.00 | 1.45 | 1.45 | 52 | 1009.7 |
| 20260507213555 | 13 | 157 | 1.6 | 8.0 | 0.00 | 1.45 | 1.45 | 54 | 1009.7 |
| 20260507213054 | 13 | 157 | 3.2 | 8.0 | 0.00 | 1.45 | 1.45 | 53 | 1009.8 |
| 20260507212555 | 14 | 157 | 3.2 | 9.7 | 0.00 | 1.45 | 1.45 | 54 | 1009.7 |
| 20260507212055 | 14 | 157 | 3.2 | 9.7 | 0.00 | 1.45 | 1.45 | 53 | 1009.9 |
| 20260507211601 | 14 | 166 | 3.2 | 6.4 | 0.00 | 1.45 | 1.45 | 54 | 1009.7 |
| 20260507211055 | 14 | 166 | 1.6 | 6.4 | 0.00 | 1.45 | 1.45 | 54 | 1009.8 |
| 20260507210555 | 14 | 182 | 1.6 | 4.8 | 0.00 | 1.45 | 1.45 | 52 | 1009.6 |
| 20260507210112 | 14 | 182 | 3.2 | 4.8 | 0.00 | 1.45 | 1.45 | 55 | 1009.7 |
| 20260507205555 | 14 | 182 | 1.6 | 4.8 | 0.00 | 1.45 | 1.45 | 55 | 1009.6 |
| 20260507205055 | 14 | 182 | 1.6 | 6.4 | 0.00 | 1.45 | 1.45 | 55 | 1009.6 |
| 20260507204554 | 14 | 182 | 1.6 | 6.4 | 0.00 | 1.45 | 1.45 | 55 | 1009.7 |
| 20260507204058 | 14 | 0 | 1.6 | 8.0 | 0.00 | 1.45 | 1.45 | 51 | 1009.8 |
| 20260507203556 | 14 | 0 | 1.6 | 8.0 | 0.00 | 1.45 | 1.45 | 53 | 1009.8 |
| 20260507203055 | 14 | 148 | 1.6 | 4.8 | 0.00 | 1.45 | 1.45 | 49 | 1009.7 |
| 20260507202558 | 14 | 79 | 1.6 | 4.8 | 0.00 | 1.45 | 1.45 | 50 | 1009.7 |
| 20260507202055 | 14 | 78 | 1.6 | 6.4 | 0.00 | 1.45 | 1.45 | 47 | 1009.7 |
| 20260507201559 | 14 | 0 | 0.0 | 6.4 | 0.00 | 1.45 | 1.45 | 48 | 1009.6 |
| 20260507201055 | 13 | 180 | 1.6 | 4.8 | 0.00 | 1.45 | 1.45 | 51 | 1009.7 |
| 20260507200557 | 13 | 181 | 0.0 | 4.8 | 0.00 | 1.45 | 1.45 | 52 | 1009.9 |
| 20260507200103 | 13 | 181 | 1.6 | 4.8 | 0.00 | 1.45 | 1.45 | 48 | 1009.9 |
| 20260507195559 | 13 | 181 | 1.6 | 4.8 | 0.00 | 1.45 | 1.45 | 50 | 1009.9 |
| 20260507195056 | 14 | 181 | 1.6 | 4.8 | 0.00 | 1.45 | 1.45 | 49 | 1010.0 |
| 20260507194601 | 14 | 181 | 0.0 | 4.8 | 0.00 | 1.45 | 1.45 | 47 | 1009.9 |
| 20260507194054 | 14 | 181 | 1.6 | 4.8 | 0.00 | 1.45 | 1.45 | 48 | 1010.0 |
| 20260507193559 | 14 | 186 | 0.0 | 4.8 | 0.00 | 1.45 | 1.45 | 49 | 1009.9 |
| 20260507193055 | 13 | 194 | 1.6 | 4.8 | 0.00 | 1.45 | 1.45 | 47 | 1010.0 |
| 20260507192554 | 13 | 188 | 1.6 | 4.8 | 0.00 | 1.45 | 1.45 | 50 | 1010.0 |
| 20260507192054 | 13 | 188 | 0.0 | 3.2 | 0.00 | 1.45 | 1.45 | 51 | 1009.9 |
| 20260507191558 | 13 | 0 | 0.0 | 4.8 | 0.00 | 1.45 | 1.45 | 50 | 1010.3 |
| 20260507191054 | 13 | 0 | 0.0 | 4.8 | 0.00 | 1.45 | 1.45 | 49 | 1010.4 |
| 20260507190554 | 13 | 188 | 1.6 | 4.8 | 0.00 | 1.45 | 1.45 | 51 | 1010.3 |
| 20260507190110 | 13 | 0 | 1.6 | 4.8 | 0.00 | 1.45 | 1.45 | 53 | 1010.6 |
| 20260507185554 | 13 | 193 | 0.0 | 4.8 | 0.00 | 1.45 | 1.45 | 53 | 1010.5 |
| 20260507185055 | 13 | 193 | 1.6 | 4.8 | 0.00 | 1.45 | 1.45 | 51 | 1010.5 |
| 20260507184554 | 13 | 193 | 1.6 | 4.8 | 0.00 | 1.45 | 1.45 | 50 | 1010.9 |
| 20260507184055 | 13 | 0 | 1.6 | 4.8 | 0.00 | 1.45 | 1.45 | 52 | 1011.2 |
| 20260507183555 | 13 | 193 | 0.0 | 4.8 | 0.00 | 1.45 | 1.45 | 51 | 1011.2 |
| 20260507183114 | 13 | 0 | 3.2 | 4.8 | 0.00 | 1.45 | 1.45 | 50 | 1011.1 |
| 20260507182555 | 13 | 229 | 1.6 | 4.8 | 0.00 | 1.45 | 1.45 | 51 | 1010.9 |
| 20260507182055 | 13 | 229 | 0.0 | 3.2 | 0.00 | 1.45 | 1.45 | 51 | 1010.8 |
| 20260507181559 | 13 | 229 | 0.0 | 3.2 | 0.00 | 1.45 | 1.45 | 48 | 1011.1 |
| 20260507181055 | 13 | 0 | 0.0 | 3.2 | 0.00 | 1.45 | 1.45 | 48 | 1011.4 |
| 20260507180556 | 13 | 229 | 0.0 | 4.8 | 0.00 | 1.45 | 1.45 | 47 | 1011.4 |
| 20260507180055 | 13 | 0 | 0.0 | 4.8 | 0.00 | 1.45 | 1.45 | 46 | 1011.4 |
| 20260507175555 | 13 | 229 | 0.0 | 4.8 | 0.00 | 1.45 | 1.45 | 44 | 1011.1 |
| 20260507175054 | 13 | 0 | 0.0 | 3.2 | 0.00 | 1.45 | 1.45 | 48 | 1011.3 |
| 20260507174602 | 13 | 0 | 0.0 | 3.2 | 0.00 | 1.45 | 1.45 | 51 | 1011.5 |
| 20260507174054 | 13 | 0 | 0.0 | 3.2 | 0.00 | 1.45 | 1.45 | 45 | 1011.6 |
| 20260507173552 | 13 | 0 | 0.0 | 3.2 | 0.00 | 1.45 | 1.45 | 47 | 1011.5 |
| 20260507173103 | 13 | 261 | 0.0 | 4.8 | 0.00 | 1.45 | 1.45 | 49 | 1011.5 |
| 20260507172556 | 13 | 0 | 0.0 | 4.8 | 0.00 | 1.45 | 1.45 | 48 | 1011.6 |
| 20260507172053 | 13 | 144 | 0.0 | 1.6 | 0.00 | 1.45 | 1.45 | 47 | 1011.5 |
| 20260507171557 | 13 | 0 | 0.0 | 0.0 | 0.00 | 1.45 | 1.45 | 49 | 1011.7 |
| 20260507171055 | 13 | 0 | 0.0 | 0.0 | 0.00 | 1.45 | 1.45 | 51 | 1012.1 |
| 20260507170555 | 13 | 0 | 0.0 | 3.2 | 0.00 | 1.45 | 1.45 | 48 | 1012.1 |
| 20260507170057 | 13 | 0 | 0.0 | 3.2 | 0.00 | 1.45 | 1.45 | 48 | 1012.3 |
| 20260507165552 | 13 | 196 | 0.0 | 3.2 | 0.00 | 1.45 | 1.45 | 43 | 1012.3 |
| 20260507165053 | 13 | 292 | 0.0 | 3.2 | 0.00 | 1.45 | 1.45 | 43 | 1012.3 |
| 20260507164629 | 13 | 0 | 0.0 | 3.2 | 0.00 | 1.45 | 1.45 | 39 | 1012.5 |
| 20260507164053 | 13 | 0 | 0.0 | 3.2 | 0.00 | 1.45 | 1.45 | 39 | 1012.4 |
| 20260507163552 | 13 | 0 | 0.0 | 3.2 | 0.00 | 1.45 | 1.45 | 41 | 1012.4 |
| 20260507163056 | 13 | 0 | 0.0 | 3.2 | 0.00 | 1.45 | 1.45 | 41 | 1012.1 |
| 20260507162554 | 13 | 0 | 0.0 | 3.2 | 0.00 | 1.45 | 1.45 | 46 | 1012.1 |
| 20260507162052 | 13 | 0 | 0.0 | 1.6 | 0.00 | 1.45 | 1.45 | 45 | 1012.3 |
| 20260507161604 | 13 | 0 | 0.0 | 3.2 | 0.00 | 1.45 | 1.45 | 48 | 1012.4 |
| 20260507161056 | 13 | 0 | 0.0 | 3.2 | 0.00 | 1.45 | 1.45 | 48 | 1012.4 |
| 20260507160552 | 13 | 195 | 0.0 | 3.2 | 0.00 | 1.45 | 1.45 | 47 | 1012.4 |
| 20260507160058 | 13 | 0 | 0.0 | 1.6 | 0.00 | 1.45 | 1.45 | 46 | 1012.3 |
| 20260507155553 | 13 | 0 | 0.0 | 1.6 | 0.00 | 1.47 | 1.45 | 48 | 1012.6 |
| 20260507155055 | 13 | 0 | 0.0 | 1.6 | 0.00 | 1.47 | 1.45 | 45 | 1012.7 |
| 20260507154558 | 13 | 0 | 0.0 | 1.6 | 0.00 | 1.47 | 1.45 | 48 | 1012.7 |
| 20260507154053 | 13 | 0 | 0.0 | 1.6 | 0.00 | 1.47 | 1.45 | 46 | 1012.7 |
| 20260507153557 | 13 | 0 | 0.0 | 1.6 | 0.00 | 1.47 | 1.45 | 46 | 1012.7 |
| 20260507153058 | 13 | 0 | 0.0 | 0.0 | 0.00 | 1.47 | 1.45 | 45 | 1012.5 |
| 20260507152553 | 13 | 0 | 0.0 | 0.0 | 0.00 | 1.47 | 1.45 | 48 | 1012.9 |
| 20260507152053 | 13 | 0 | 0.0 | 0.0 | 0.00 | 1.47 | 1.45 | 46 | 1012.7 |
| 20260507151556 | 13 | 0 | 0.0 | 0.0 | 0.00 | 1.47 | 1.45 | 45 | 1012.7 |
| 20260507151052 | 13 | 0 | 0.0 | 3.2 | 0.00 | 1.47 | 1.45 | 44 | 1012.7 |
| 20260507150552 | 13 | 0 | 0.0 | 3.2 | 0.00 | 1.47 | 1.45 | 45 | 1012.8 |
| 20260507150057 | 13 | 0 | 1.6 | 3.2 | 0.00 | 1.47 | 1.45 | 47 | 1012.8 |
| 20260507145553 | 13 | 51 | 0.0 | 3.2 | 0.00 | 1.63 | 1.45 | 46 | 1013.0 |
| 20260507145054 | 13 | 0 | 0.0 | 3.2 | 0.00 | 1.63 | 1.45 | 47 | 1013.2 |
| 20260507144600 | 13 | 0 | 0.0 | 3.2 | 0.00 | 1.63 | 1.45 | 47 | 1013.0 |
| 20260507144052 | 13 | 0 | 0.0 | 4.8 | 0.00 | 1.63 | 1.45 | 47 | 1013.0 |
| 20260507143552 | 13 | 0 | 0.0 | 4.8 | 0.00 | 1.63 | 1.45 | 49 | 1013.1 |
| 20260507143114 | 13 | 0 | 0.0 | 3.2 | 0.00 | 1.63 | 1.45 | 50 | 1013.2 |
| 20260507142554 | 13 | 0 | 0.0 | 4.8 | 0.00 | 1.63 | 1.45 | 50 | 1013.3 |
| 20260507142054 | 13 | 0 | 0.0 | 4.8 | 0.00 | 1.63 | 1.45 | 49 | 1013.5 |
| 20260507141556 | 13 | 0 | 0.0 | 3.2 | 0.00 | 1.63 | 1.45 | 50 | 1013.5 |
| 20260507141054 | 13 | 0 | 0.0 | 3.2 | 0.00 | 1.63 | 1.45 | 50 | 1013.4 |
| 20260507140554 | 13 | 0 | 0.0 | 4.8 | 0.00 | 1.63 | 1.45 | 49 | 1013.4 |
| 20260507140055 | 13 | 0 | 1.6 | 4.8 | 0.00 | 1.63 | 1.45 | 49 | 1013.4 |
| 20260507135556 | 13 | 11 | 0.0 | 3.2 | 0.00 | 1.80 | 1.45 | 50 | 1013.4 |
| 20260507135055 | 13 | 11 | 0.0 | 6.4 | 0.00 | 1.80 | 1.45 | 49 | 1013.4 |
| 20260507134556 | 13 | 0 | 1.6 | 6.4 | 0.00 | 1.80 | 1.45 | 49 | 1013.4 |
| 20260507134054 | 13 | 0 | 0.0 | 6.4 | 0.00 | 1.80 | 1.45 | 48 | 1013.5 |
| 20260507133555 | 13 | 360 | 0.0 | 6.4 | 0.00 | 1.80 | 1.45 | 48 | 1013.5 |
| 20260507133058 | 13 | 18 | 0.0 | 6.4 | 0.00 | 1.80 | 1.45 | 48 | 1013.5 |
| 20260507132554 | 13 | 13 | 1.6 | 6.4 | 0.00 | 1.80 | 1.45 | 48 | 1013.4 |
| 20260507132058 | 13 | 0 | 0.0 | 4.8 | 0.00 | 1.80 | 1.45 | 49 | 1013.6 |
| 20260507131602 | 13 | 0 | 0.0 | 4.8 | 0.00 | 1.80 | 1.45 | 49 | 1013.4 |
| 20260507131056 | 13 | 0 | 0.0 | 6.4 | 0.00 | 1.80 | 1.45 | 47 | 1013.5 |
| 20260507130554 | 13 | 304 | 0.0 | 6.4 | 0.00 | 1.80 | 1.45 | 49 | 1013.4 |
| 20260507130056 | 12 | 360 | 1.6 | 4.8 | 0.00 | 1.80 | 1.45 | 50 | 1013.4 |
| 20260507125554 | 12 | 0 | 0.0 | 4.8 | 0.00 | 1.83 | 1.45 | 50 | 1013.5 |
| 20260507125054 | 12 | 355 | 1.6 | 4.8 | 0.00 | 1.83 | 1.45 | 53 | 1013.2 |
| 20260507124604 | 12 | 10 | 0.0 | 8.0 | 0.00 | 1.83 | 1.45 | 54 | 1013.3 |
| 20260507124055 | 12 | 0 | 1.6 | 8.0 | 0.00 | 1.83 | 1.45 | 55 | 1013.0 |
| 20260507123555 | 12 | 47 | 1.6 | 8.0 | 0.00 | 1.83 | 1.45 | 56 | 1013.1 |
| 20260507123052 | 12 | 0 | 1.6 | 8.0 | 0.00 | 1.83 | 1.45 | 58 | 1013.1 |
| 20260507122553 | 12 | 360 | 1.6 | 8.0 | 0.00 | 1.83 | 1.45 | 59 | 1013.2 |
| 20260507122055 | 12 | 346 | 1.6 | 4.8 | 0.00 | 1.83 | 1.45 | 61 | 1013.0 |
| 20260507121553 | 12 | 15 | 0.0 | 1.6 | 0.00 | 1.83 | 1.45 | 62 | 1013.0 |
| 20260507121055 | 12 | 0 | 0.0 | 1.6 | 0.00 | 1.83 | 1.45 | 65 | 1012.8 |
| 20260507120553 | 12 | 0 | 0.0 | 3.2 | 0.00 | 1.83 | 1.45 | 66 | 1012.7 |
| 20260507120055 | 12 | 0 | 0.0 | 3.2 | 0.00 | 1.83 | 1.45 | 66 | 1013.0 |
| 20260507115555 | 12 | 204 | 0.0 | 3.2 | 0.00 | 1.83 | 1.45 | 67 | 1013.1 |
| 20260507115057 | 12 | 0 | 0.0 | 3.2 | 0.00 | 1.83 | 1.45 | 68 | 1013.1 |
| 20260507114609 | 12 | 0 | 0.0 | 0.0 | 0.00 | 1.83 | 1.45 | 69 | 1012.9 |
| 20260507114054 | 12 | 0 | 0.0 | 1.6 | 0.00 | 1.83 | 1.45 | 69 | 1013.0 |
| 20260507113557 | 12 | 0 | 0.0 | 1.6 | 0.00 | 1.83 | 1.45 | 69 | 1012.7 |
| 20260507113128 | 12 | 0 | 0.0 | 1.6 | 0.00 | 1.83 | 1.45 | 71 | 1012.6 |
| 20260507112554 | 12 | 0 | 0.0 | 0.0 | 0.00 | 1.83 | 1.45 | 72 | 1012.8 |
| 20260507112055 | 12 | 0 | 0.0 | 0.0 | 0.00 | 1.83 | 1.45 | 72 | 1012.7 |
| 20260507111558 | 12 | 0 | 0.0 | 0.0 | 0.00 | 1.83 | 1.45 | 72 | 1012.7 |
| 20260507111055 | 12 | 0 | 0.0 | 0.0 | 0.00 | 1.83 | 1.45 | 72 | 1012.8 |
| 20260507110554 | 12 | 0 | 0.0 | 0.0 | 0.00 | 1.83 | 1.45 | 72 | 1012.7 |
| 20260507110056 | 12 | 0 | 0.0 | 0.0 | 0.00 | 1.83 | 1.45 | 72 | 1012.7 |
| 20260507105553 | 12 | 0 | 0.0 | 0.0 | 0.00 | 1.83 | 1.45 | 72 | 1012.7 |
| 20260507105054 | 12 | 0 | 0.0 | 0.0 | 0.00 | 1.83 | 1.45 | 73 | 1012.7 |
| 20260507104556 | 12 | 0 | 0.0 | 0.0 | 0.00 | 1.83 | 1.45 | 73 | 1012.6 |
| 20260507104055 | 12 | 0 | 0.0 | 0.0 | 0.00 | 1.83 | 1.45 | 72 | 1012.6 |
| 20260507103556 | 12 | 0 | 0.0 | 1.6 | 0.00 | 1.83 | 1.45 | 72 | 1012.5 |
| 20260507103059 | 12 | 0 | 0.0 | 1.6 | 0.00 | 1.83 | 1.45 | 72 | 1012.5 |
| 20260507102554 | 12 | 0 | 0.0 | 1.6 | 0.00 | 1.83 | 1.45 | 72 | 1012.3 |
| 20260507102055 | 12 | 0 | 0.0 | 0.0 | 0.00 | 1.83 | 1.45 | 72 | 1012.3 |
| 20260507101559 | 12 | 0 | 0.0 | 0.0 | 0.00 | 1.83 | 1.45 | 73 | 1012.2 |
| 20260507101055 | 12 | 0 | 0.0 | 0.0 | 0.00 | 1.83 | 1.45 | 73 | 1012.2 |
| 20260507100556 | 12 | 0 | 0.0 | 0.0 | 0.00 | 1.83 | 1.45 | 73 | 1012.3 |
| 20260507100121 | 12 | 0 | 0.0 | 0.0 | 0.00 | 1.83 | 1.45 | 73 | 1012.2 |
| 20260507095554 | 12 | 0 | 0.0 | 1.6 | 0.00 | 1.83 | 1.45 | 73 | 1012.2 |
| 20260507095055 | 12 | 0 | 0.0 | 1.6 | 0.00 | 1.83 | 1.45 | 73 | 1012.2 |
| 20260507094602 | 12 | 0 | 0.0 | 0.0 | 0.00 | 1.83 | 1.45 | 73 | 1012.3 |
| 20260507094054 | 12 | 0 | 0.0 | 0.0 | 0.00 | 1.83 | 1.45 | 73 | 1012.3 |
| 20260507093555 | 12 | 0 | 0.0 | 0.0 | 0.00 | 1.83 | 1.45 | 73 | 1012.2 |
| 20260507093055 | 12 | 0 | 0.0 | 0.0 | 0.00 | 1.83 | 1.45 | 73 | 1012.0 |
| 20260507092554 | 12 | 0 | 0.0 | 0.0 | 0.00 | 1.83 | 1.45 | 73 | 1012.0 |
| 20260507092053 | 12 | 0 | 0.0 | 1.6 | 0.00 | 1.83 | 1.45 | 73 | 1011.9 |
| 20260507091632 | 12 | 0 | 0.0 | 1.6 | 0.00 | 1.83 | 1.45 | 73 | 1011.9 |
| 20260507091054 | 12 | 0 | 0.0 | 1.6 | 0.00 | 1.83 | 1.45 | 73 | 1011.7 |
| 20260507090555 | 12 | 0 | 0.0 | 0.0 | 0.00 | 1.83 | 1.45 | 73 | 1012.1 |
| 20260507090058 | 12 | 0 | 0.0 | 3.2 | 0.00 | 1.83 | 1.45 | 73 | 1011.9 |
| 20260507085554 | 12 | 0 | 0.0 | 3.2 | 0.00 | 1.83 | 1.45 | 73 | 1011.8 |
| 20260507085055 | 12 | 0 | 0.0 | 3.2 | 0.00 | 1.83 | 1.45 | 73 | 1011.8 |
| 20260507084604 | 12 | 0 | 0.0 | 0.0 | 0.00 | 1.83 | 1.45 | 73 | 1011.9 |
| 20260507084054 | 12 | 0 | 0.0 | 0.0 | 0.00 | 1.83 | 1.45 | 72 | 1011.9 |
| 20260507083555 | 12 | 0 | 0.0 | 0.0 | 0.00 | 1.83 | 1.45 | 72 | 1011.8 |
| 20260507083056 | 12 | 0 | 0.0 | 3.2 | 0.00 | 1.83 | 1.45 | 72 | 1012.1 |
| 20260507082554 | 12 | 0 | 0.0 | 3.2 | 0.00 | 1.83 | 1.45 | 72 | 1011.8 |
| 20260507082054 | 12 | 0 | 0.0 | 1.6 | 0.00 | 1.83 | 1.45 | 73 | 1011.7 |
| 20260507081600 | 12 | 0 | 0.0 | 3.2 | 0.00 | 1.83 | 1.45 | 73 | 1012.0 |
| 20260507081054 | 12 | 0 | 0.0 | 3.2 | 0.00 | 1.83 | 1.45 | 73 | 1011.7 |
| 20260507080554 | 12 | 0 | 0.0 | 3.2 | 0.00 | 1.83 | 1.45 | 74 | 1011.4 |
| 20260507080056 | 12 | 0 | 0.0 | 3.2 | 0.00 | 1.83 | 1.45 | 74 | 1011.3 |
| 20260507075554 | 12 | 9 | 0.0 | 3.2 | 0.00 | 1.83 | 1.45 | 74 | 1011.2 |
| 20260507075054 | 12 | 0 | 0.0 | 3.2 | 0.00 | 1.83 | 1.45 | 74 | 1011.2 |
| 20260507074559 | 12 | 0 | 0.0 | 1.6 | 0.00 | 1.83 | 1.45 | 74 | 1011.3 |
| 20260507074056 | 12 | 0 | 0.0 | 3.2 | 0.00 | 1.83 | 1.45 | 74 | 1011.4 |
| 20260507073553 | 12 | 0 | 0.0 | 3.2 | 0.00 | 1.83 | 1.45 | 74 | 1011.3 |
| 20260507073057 | 12 | 0 | 0.0 | 1.6 | 0.00 | 1.83 | 1.45 | 74 | 1010.9 |
| 20260507072554 | 12 | 0 | 0.0 | 1.6 | 0.00 | 1.83 | 1.45 | 74 | 1010.9 |
| 20260507072053 | 12 | 0 | 0.0 | 1.6 | 0.00 | 1.83 | 1.45 | 74 | 1011.1 |
| 20260507071556 | 12 | 0 | 0.0 | 0.0 | 0.00 | 1.83 | 1.45 | 74 | 1011.2 |
| 20260507071055 | 13 | 0 | 0.0 | 1.6 | 0.00 | 1.83 | 1.45 | 74 | 1011.1 |
| 20260507070554 | 13 | 0 | 0.0 | 3.2 | 0.00 | 1.83 | 1.45 | 74 | 1011.0 |
| 20260507070057 | 13 | 0 | 0.0 | 6.4 | 0.00 | 1.83 | 1.45 | 74 | 1011.0 |
| 20260507065556 | 13 | 10 | 0.0 | 6.4 | 0.00 | 1.83 | 1.45 | 74 | 1011.0 |
| 20260507065054 | 13 | 0 | 0.0 | 4.8 | 0.00 | 1.83 | 1.45 | 74 | 1010.9 |
| 20260507064554 | 13 | 0 | 0.0 | 4.8 | 0.03 | 1.83 | 1.45 | 75 | 1010.9 |
| 20260507064054 | 13 | 0 | 0.0 | 4.8 | 0.03 | 1.83 | 1.45 | 75 | 1011.1 |
| 20260507063553 | 13 | 352 | 1.6 | 11.3 | 0.03 | 1.83 | 1.45 | 76 | 1010.7 |
| 20260507063055 | 13 | 317 | 1.6 | 11.3 | 0.05 | 1.83 | 1.45 | 77 | 1010.8 |
| 20260507062554 | 13 | 305 | 1.6 | 11.3 | 0.05 | 1.83 | 1.45 | 78 | 1011.0 |
| 20260507062054 | 13 | 0 | 1.6 | 9.7 | 0.08 | 1.83 | 1.45 | 79 | 1010.9 |
| 20260507061553 | 13 | 296 | 3.2 | 9.7 | 0.08 | 1.83 | 1.45 | 79 | 1010.7 |
| 20260507061056 | 13 | 333 | 0.0 | 4.8 | 0.08 | 1.83 | 1.45 | 80 | 1010.9 |
| 20260507060557 | 13 | 0 | 0.0 | 4.8 | 0.08 | 1.83 | 1.45 | 79 | 1010.9 |
| 20260507060059 | 13 | 320 | 0.0 | 3.2 | 0.10 | 1.83 | 1.45 | 80 | 1010.6 |
| 20260507055554 | 14 | 0 | 0.0 | 3.2 | 0.10 | 1.83 | 1.45 | 80 | 1010.2 |
| 20260507055054 | 14 | 0 | 0.0 | 3.2 | 0.13 | 1.83 | 1.45 | 79 | 1009.8 |
| 20260507054554 | 14 | 320 | 0.0 | 3.2 | 0.10 | 1.80 | 1.42 | 79 | 1010.3 |
| 20260507054056 | 14 | 0 | 0.0 | 1.6 | 0.18 | 1.80 | 1.42 | 79 | 1010.7 |
| 20260507053637 | 14 | 0 | 0.0 | 0.0 | 0.61 | 1.80 | 1.42 | 79 | 1010.5 |
| 20260507053055 | 14 | 0 | 0.0 | 0.0 | 0.81 | 1.78 | 1.40 | 78 | 1010.9 |
| 20260507052559 | 14 | 0 | 0.0 | 0.0 | 1.22 | 1.78 | 1.40 | 77 | 1010.7 |
| 20260507052056 | 14 | 0 | 0.0 | 0.0 | 1.32 | 1.75 | 1.37 | 75 | 1010.8 |
| 20260507051558 | 14 | 0 | 0.0 | 1.6 | 1.32 | 1.75 | 1.37 | 73 | 1011.0 |
| 20260507051057 | 14 | 0 | 0.0 | 1.6 | 1.37 | 1.75 | 1.37 | 72 | 1011.3 |
| 20260507050553 | 14 | 0 | 0.0 | 1.6 | 1.37 | 1.75 | 1.37 | 71 | 1011.3 |
| 20260507050057 | 14 | 0 | 0.0 | 1.6 | 1.32 | 1.73 | 1.32 | 69 | 1010.8 |
| 20260507045556 | 14 | 0 | 0.0 | 3.2 | 1.32 | 1.73 | 1.32 | 69 | 1010.5 |
| 20260507045056 | 14 | 0 | 0.0 | 9.7 | 1.32 | 1.70 | 1.32 | 68 | 1010.8 |
| 20260507044616 | 15 | 0 | 0.0 | 9.7 | 1.32 | 1.70 | 1.32 | 67 | 1011.1 |
| 20260507044055 | 15 | 320 | 1.6 | 9.7 | 1.24 | 1.63 | 1.24 | 66 | 1011.2 |
| 20260507043555 | 15 | 326 | 0.0 | 6.4 | 0.81 | 1.19 | 0.81 | 65 | 1011.7 |
| 20260507043109 | 16 | 17 | 3.2 | 6.4 | 0.58 | 0.97 | 0.58 | 63 | 1011.0 |
| 20260507042556 | 16 | 316 | 0.0 | 8.0 | 0.18 | 0.56 | 0.18 | 61 | 1011.1 |
| 20260507042055 | 17 | 330 | 1.6 | 8.0 | 0.05 | 0.43 | 0.05 | 59 | 1010.7 |
| 20260507041558 | 17 | 0 | 1.6 | 11.3 | 0.03 | 0.41 | 0.03 | 58 | 1010.6 |
| 20260507041055 | 17 | 311 | 1.6 | 14.5 | 0.00 | 0.38 | 0.00 | 55 | 1010.6 |
| 20260507040556 | 17 | 5 | 4.8 | 14.5 | 0.00 | 0.38 | 0.00 | 54 | 1010.7 |
| 20260507040059 | 18 | 333 | 1.6 | 11.3 | 0.00 | 0.38 | 0.00 | 54 | 1010.7 |
| 20260507035555 | 18 | 15 | 1.6 | 12.9 | 0.00 | 0.38 | 0.38 | 55 | 1010.5 |
| 20260507035055 | 18 | 311 | 1.6 | 12.9 | 0.00 | 0.38 | 0.38 | 56 | 1010.3 |
| 20260507034557 | 18 | 19 | 3.2 | 12.9 | 0.00 | 0.38 | 0.38 | 56 | 1010.2 |
| 20260507034055 | 18 | 346 | 4.8 | 12.9 | 0.00 | 0.38 | 0.38 | 57 | 1010.3 |
| 20260507033555 | 19 | 290 | 1.6 | 8.0 | 0.00 | 0.38 | 0.38 | 58 | 1010.4 |
| 20260507033102 | 19 | 315 | 1.6 | 8.0 | 0.00 | 0.38 | 0.38 | 59 | 1010.3 |
| 20260507032559 | 19 | 11 | 1.6 | 6.4 | 0.00 | 0.38 | 0.38 | 59 | 1010.1 |
| 20260507032055 | 19 | 40 | 0.0 | 4.8 | 0.00 | 0.38 | 0.38 | 59 | 1010.2 |
| 20260507031556 | 19 | 0 | 0.0 | 4.8 | 0.00 | 0.38 | 0.38 | 59 | 1010.2 |
| 20260507031058 | 19 | 0 | 0.0 | 4.8 | 0.00 | 0.38 | 0.38 | 59 | 1009.9 |
| 20260507030555 | 19 | 0 | 0.0 | 4.8 | 0.00 | 0.38 | 0.38 | 59 | 1009.6 |
| 20260507030059 | 19 | 21 | 0.0 | 6.4 | 0.00 | 0.38 | 0.38 | 59 | 1009.7 |
| 20260507025555 | 19 | 0 | 1.6 | 6.4 | 0.00 | 0.38 | 0.38 | 60 | 1009.6 |
| 20260507025059 | 19 | 21 | 1.6 | 6.4 | 0.00 | 0.38 | 0.38 | 61 | 1009.8 |
| 20260507024558 | 19 | 352 | 1.6 | 6.4 | 0.00 | 0.38 | 0.38 | 62 | 1009.9 |
| 20260507024056 | 19 | 0 | 0.0 | 3.2 | 0.00 | 0.38 | 0.38 | 64 | 1009.8 |
| 20260507023555 | 19 | 0 | 0.0 | 3.2 | 0.00 | 0.38 | 0.38 | 64 | 1009.7 |
| 20260507023108 | 19 | 129 | 0.0 | 0.0 | 0.00 | 0.38 | 0.38 | 65 | 1009.5 |
| 20260507022555 | 19 | 0 | 0.0 | 0.0 | 0.00 | 0.38 | 0.38 | 66 | 1009.5 |
| 20260507022056 | 18 | 0 | 0.0 | 0.0 | 0.00 | 0.38 | 0.38 | 66 | 1009.5 |
| 20260507021555 | 18 | 0 | 0.0 | 0.0 | 0.00 | 0.38 | 0.38 | 66 | 1009.1 |
| 20260507021055 | 18 | 0 | 0.0 | 0.0 | 0.00 | 0.38 | 0.38 | 66 | 1009.0 |
| 20260507020555 | 18 | 0 | 0.0 | 0.0 | 0.00 | 0.38 | 0.38 | 66 | 1009.1 |
| 20260507020105 | 19 | 0 | 0.0 | 0.0 | 0.00 | 0.38 | 0.38 | 66 | 1009.0 |
| 20260507015555 | 19 | 0 | 0.0 | 0.0 | 0.00 | 0.38 | 0.38 | 65 | 1009.3 |
| 20260507015055 | 19 | 0 | 0.0 | 0.0 | 0.00 | 0.38 | 0.38 | 65 | 1009.5 |
| 20260507014557 | 19 | 0 | 0.0 | 0.0 | 0.00 | 0.38 | 0.38 | 64 | 1009.4 |
| 20260507014056 | 19 | 0 | 0.0 | 0.0 | 0.00 | 0.38 | 0.38 | 64 | 1009.5 |
| 20260507013556 | 19 | 0 | 0.0 | 0.0 | 0.00 | 0.38 | 0.38 | 64 | 1009.5 |
| 20260507013058 | 19 | 0 | 0.0 | 0.0 | 0.00 | 0.38 | 0.38 | 63 | 1009.6 |
| 20260507012555 | 19 | 0 | 0.0 | 0.0 | 0.00 | 0.38 | 0.38 | 63 | 1009.5 |
| 20260507012055 | 20 | 0 | 0.0 | 0.0 | 0.00 | 0.38 | 0.38 | 62 | 1009.7 |
| 20260507011558 | 20 | 0 | 0.0 | 0.0 | 0.00 | 0.38 | 0.38 | 62 | 1009.5 |
| 20260507011055 | 20 | 0 | 0.0 | 0.0 | 0.00 | 0.38 | 0.38 | 62 | 1009.6 |
| 20260507010555 | 20 | 0 | 0.0 | 0.0 | 0.00 | 0.38 | 0.38 | 62 | 1009.7 |
| 20260507010057 | 20 | 0 | 0.0 | 0.0 | 0.00 | 0.38 | 0.38 | 62 | 1009.9 |
| 20260507005556 | 20 | 0 | 0.0 | 0.0 | 0.00 | 0.38 | 0.38 | 62 | 1009.9 |
| 20260507005057 | 19 | 0 | 0.0 | 0.0 | 0.00 | 0.38 | 0.38 | 63 | 1009.7 |
| 20260507004556 | 19 | 0 | 0.0 | 0.0 | 0.00 | 0.38 | 0.38 | 63 | 1009.4 |
| 20260507004055 | 19 | 0 | 0.0 | 0.0 | 0.00 | 0.38 | 0.38 | 63 | 1009.4 |
| 20260507003556 | 19 | 0 | 0.0 | 0.0 | 0.00 | 0.38 | 0.38 | 64 | 1009.2 |
| 20260507003114 | 20 | 0 | 0.0 | 0.0 | 0.00 | 0.38 | 0.38 | 63 | 1009.4 |
| 20260507002555 | 20 | 0 | 0.0 | 0.0 | 0.00 | 0.38 | 0.38 | 63 | 1009.2 |
| 20260507002055 | 20 | 0 | 0.0 | 0.0 | 0.00 | 0.38 | 0.38 | 63 | 1009.1 |
| 20260507001616 | 20 | 0 | 0.0 | 0.0 | 0.00 | 0.38 | 0.38 | 63 | 1009.4 |
| 20260507001054 | 20 | 0 | 0.0 | 0.0 | 0.00 | 0.38 | 0.38 | 62 | 1009.4 |
| 20260507000557 | 20 | 0 | 0.0 | 0.0 | 0.00 | 0.38 | 0.38 | 62 | 1009.2 |
| 20260507000057 | 20 | 0 | 0.0 | 0.0 | 0.00 | 0.38 | 0.38 | 62 | 1008.7 |
| 20260506235556 | 20 | 0 | 0.0 | 0.0 | 0.00 | 0.38 | 0.38 | 62 | 1008.8 |
| 20260506235057 | 20 | 0 | 0.0 | 0.0 | 0.00 | 0.38 | 0.38 | 62 | 1008.9 |
| 20260506234557 | 20 | 0 | 0.0 | 0.0 | 0.00 | 0.38 | 0.38 | 62 | 1008.6 |
| 20260506234058 | 20 | 0 | 0.0 | 1.6 | 0.00 | 0.38 | 0.38 | 62 | 1008.4 |
| 20260506233557 | 20 | 0 | 0.0 | 1.6 | 0.00 | 0.38 | 0.38 | 62 | 1008.2 |
| 20260506233055 | 20 | 0 | 0.0 | 1.6 | 0.00 | 0.38 | 0.38 | 62 | 1008.2 |
| 20260506232556 | 20 | 0 | 0.0 | 0.0 | 0.00 | 0.38 | 0.38 | 62 | 1008.3 |
| 20260506232052 | 20 | 0 | 0.0 | 0.0 | 0.00 | 0.38 | 0.38 | 62 | 1008.3 |
| 20260506231604 | 20 | 0 | 0.0 | 0.0 | 0.00 | 0.38 | 0.38 | 62 | 1008.3 |
| 20260506231055 | 20 | 0 | 0.0 | 0.0 | 0.00 | 0.38 | 0.38 | 62 | 1008.4 |
| 20260506230554 | 20 | 0 | 0.0 | 0.0 | 0.00 | 0.38 | 0.38 | 61 | 1008.4 |
| 20260506230109 | 20 | 0 | 0.0 | 0.0 | 0.00 | 0.38 | 0.38 | 61 | 1008.3 |
| 20260506225557 | 20 | 0 | 0.0 | 0.0 | 0.00 | 0.38 | 0.38 | 61 | 1008.3 |
| 20260506225055 | 20 | 0 | 0.0 | 0.0 | 0.00 | 0.38 | 0.38 | 61 | 1008.3 |
| 20260506224556 | 21 | 0 | 0.0 | 0.0 | 0.00 | 0.38 | 0.38 | 61 | 1008.3 |
| 20260506224057 | 20 | 0 | 0.0 | 0.0 | 0.00 | 0.38 | 0.38 | 61 | 1008.3 |
| 20260506223558 | 20 | 0 | 0.0 | 0.0 | 0.00 | 0.38 | 0.38 | 60 | 1008.3 |
| 20260506223103 | 20 | 0 | 0.0 | 0.0 | 0.00 | 0.38 | 0.38 | 61 | 1008.2 |
| 20260506222557 | 20 | 0 | 0.0 | 0.0 | 0.00 | 0.38 | 0.38 | 60 | 1008.4 |
| 20260506222059 | 20 | 0 | 0.0 | 0.0 | 0.00 | 0.38 | 0.38 | 61 | 1008.2 |
| 20260506221607 | 20 | 0 | 0.0 | 0.0 | 0.00 | 0.38 | 0.38 | 61 | 1008.3 |
| 20260506221055 | 20 | 0 | 0.0 | 0.0 | 0.00 | 0.38 | 0.38 | 61 | 1008.3 |
| 20260506220555 | 20 | 0 | 0.0 | 0.0 | 0.00 | 0.38 | 0.38 | 60 | 1008.3 |